Pensacola, FL

2:06 PM CST on January 17, 2018 (GMT -0600)
Pensacola Regional

Weather History for KPNS - March, 2013

Change the Weather History Date:

Tuesday, March 26, 2013

  Actual Average Record
Temperature  
Mean Temperature 47 °F 62 °F  
Max Temperature 57 °F 72 °F 83 °F (2012)
Min Temperature 36 °F 53 °F 30 °F (1894)
Degree Days  
Heating Degree Days 18 4  
Month to date heating degree days 222 158  
Since 1 July heating degree days 1103 1466  
Cooling Degree Days 0 1  
Month to date cooling degree days 10 25  
Year to date cooling degree days 50 39  
Moisture  
Dew Point 24 °F    
Average Humidity 43    
Maximum Humidity 59    
Minimum Humidity 26    
Precipitation  
Precipitation 0.00 in 0.18 in 3.21 in (1888)
Month to date precipitation 1.56 4.91  
Year to date precipitation 15.83 14.60  
Snow  
Snow 0.00 in 0.00 in - ()
Month to date snowfall 0.0 0.0  
Since 1 July snowfall 0.0 0.0  
Snow Depth 0.00 in    
Sea Level Pressure  
Sea Level Pressure 30.29 in    
Wind  
Wind Speed 11 mph (NNW)    
Max Wind Speed 22 mph    
Max Gust Speed 29 mph    
Visibility 10 miles    
Events      
T = Trace of Precipitation, MM = Missing Value Source: NWS Daily Summary

Daily Weather History Graph

Daily Weather History Graph

Search for Another Location

Airport or City:

Trip Planner

Search our weather history database for the weather conditions in past years. The results will help you decide how hot, cold, wet, or windy it might be!

Date:

Astronomy

Mar. 26, 2013 Rise Set
Actual Time 6:44 AM CDT 7:04 PM CDT
Civil Twilight 6:20 AM CDT 7:28 PM CDT
Nautical Twilight 5:52 AM CDT 7:56 PM CDT
Astronomical Twilight 5:24 AM CDT 8:24 PM CDT
Moon 6:39 PM CDT (3/26) 5:59 AM CDT (3/26)
Length of Visible Light 13h 07m
Length of Day
12h 19m
Waxing Gibbous, 99% of the Moon is Illuminated
Mar 26
Waxing Gibbous
Mar 27
Full
Apr 2
Last Quarter
Apr 10
New
Apr 18
First Quarter

Hourly Weather History & Observations

Time (CDT) Temp. Windchill Dew Point Humidity Pressure Visibility Wind Dir Wind Speed Gust Speed Precip Events Conditions
12:53 AM 44.1 °F 39.0 °F 24.1 °F 45% 30.23 in 10.0 mi NNW 9.2 mph - N/A   Clear
1:53 AM 42.1 °F 37.1 °F 24.1 °F 49% 30.24 in 10.0 mi North 8.1 mph - N/A   Clear
2:53 AM 39.0 °F 35.7 °F 25.0 °F 57% 30.24 in 10.0 mi NNW 4.6 mph - N/A   Clear
3:53 AM 37.9 °F 32.1 °F 25.0 °F 60% 30.25 in 10.0 mi NNW 8.1 mph - N/A   Clear
4:53 AM 37.0 °F 31.6 °F 25.0 °F 62% 30.25 in 10.0 mi NNW 6.9 mph - N/A   Clear
5:53 AM 37.0 °F 29.3 °F 24.1 °F 59% 30.28 in 10.0 mi NNW 11.5 mph - N/A   Clear
6:53 AM 37.0 °F 30.4 °F 24.1 °F 59% 30.30 in 10.0 mi NNW 9.2 mph - N/A   Clear
7:53 AM 39.9 °F 31.8 °F 24.1 °F 53% 30.31 in 10.0 mi NNW 15.0 mph - N/A   Clear
8:53 AM 43.0 °F 35.4 °F 21.9 °F 43% 30.33 in 10.0 mi North 16.1 mph 24.2 mph N/A   Clear
9:53 AM 45.0 °F 37.6 °F 21.9 °F 40% 30.33 in 10.0 mi North 17.3 mph 24.2 mph N/A   Clear
10:53 AM 46.9 °F - 21.0 °F 36% 30.33 in 10.0 mi NW 18.4 mph 27.6 mph N/A   Clear
11:53 AM 50.0 °F - 21.0 °F 32% 30.32 in 10.0 mi NNW 13.8 mph 24.2 mph N/A   Clear
12:53 PM 52.0 °F - 21.0 °F 30% 30.30 in 10.0 mi NW 11.5 mph 24.2 mph N/A   Clear
1:53 PM 55.0 °F - 21.9 °F 28% 30.28 in 10.0 mi NNW 13.8 mph 28.8 mph N/A   Clear
2:53 PM 55.0 °F - 21.9 °F 28% 30.26 in 10.0 mi NNW 11.5 mph 21.9 mph N/A   Clear
3:53 PM 55.9 °F - 21.9 °F 27% 30.25 in 10.0 mi NNW 12.7 mph 25.3 mph N/A   Clear
4:53 PM 55.9 °F - 23.0 °F 28% 30.24 in 10.0 mi North 11.5 mph 24.2 mph N/A   Clear
5:53 PM 55.0 °F - 23.0 °F 29% 30.25 in 10.0 mi North 11.5 mph 20.7 mph N/A   Clear
6:53 PM 52.0 °F - 23.0 °F 32% 30.27 in 10.0 mi NNW 10.4 mph - N/A   Clear
7:53 PM 50.0 °F - 24.1 °F 36% 30.30 in 10.0 mi North 6.9 mph - N/A   Clear
8:53 PM 48.0 °F - 25.0 °F 41% 30.32 in 10.0 mi North 10.4 mph - N/A   Clear
9:53 PM 46.0 °F 40.6 °F 27.0 °F 47% 30.35 in 10.0 mi North 11.5 mph 18.4 mph N/A   Clear
10:53 PM 45.0 °F 40.6 °F 27.0 °F 49% 30.37 in 10.0 mi NNE 8.1 mph - N/A   Clear
11:53 PM 44.1 °F 39.0 °F 27.0 °F 51% 30.37 in 10.0 mi North 9.2 mph - N/A   Clear